Year,Month,Day,Hour,Minute,Value (Times are PST for temperature in C)
2011,04,21,00,00,4.60
2011,04,21,00,01,4.50
2011,04,21,00,02,4.50
2011,04,21,00,03,4.50
2011,04,21,00,04,4.40
2011,04,21,00,05,4.40
2011,04,21,00,06,4.40
2011,04,21,00,07,4.30
2011,04,21,00,08,4.30
2011,04,21,00,09,4.30
2011,04,21,00,10,4.20
2011,04,21,00,11,4.20
2011,04,21,00,12,4.20
2011,04,21,00,13,4.20
2011,04,21,00,14,4.10
2011,04,21,00,15,4.10
2011,04,21,00,16,4.10
2011,04,21,00,17,4.10
2011,04,21,00,18,4.10
2011,04,21,00,19,4.10
2011,04,21,00,20,4.10
2011,04,21,00,21,4.10
2011,04,21,00,22,4.10
2011,04,21,00,23,4.00
2011,04,21,00,24,4.00
2011,04,21,00,25,4.00
2011,04,21,00,26,4.00
2011,04,21,00,27,3.90
2011,04,21,00,28,3.90
2011,04,21,00,29,3.90
2011,04,21,00,30,3.80
2011,04,21,00,31,3.80
2011,04,21,00,32,3.80
2011,04,21,00,33,3.80
2011,04,21,00,34,3.80
2011,04,21,00,35,3.70
2011,04,21,00,36,3.70
2011,04,21,00,37,3.70
2011,04,21,00,38,3.70
2011,04,21,00,39,3.70
2011,04,21,00,40,3.60
2011,04,21,00,41,3.60
2011,04,21,00,42,3.60
2011,04,21,00,43,3.60
2011,04,21,00,44,3.60
2011,04,21,00,45,3.60
2011,04,21,00,46,3.50
2011,04,21,00,47,3.50
2011,04,21,00,48,3.50
2011,04,21,00,49,3.50
2011,04,21,00,50,3.50
2011,04,21,00,51,3.50
2011,04,21,00,52,3.50
2011,04,21,00,53,3.40
2011,04,21,00,54,3.40
2011,04,21,00,55,3.40
2011,04,21,00,56,3.40
2011,04,21,00,57,3.40
2011,04,21,00,58,3.40
2011,04,21,00,59,3.50
2011,04,21,01,00,3.50
2011,04,21,01,01,3.60
2011,04,21,01,02,3.80
2011,04,21,01,03,3.80
2011,04,21,01,04,3.90
2011,04,21,01,05,3.90
2011,04,21,01,06,3.90
2011,04,21,01,07,4.00
2011,04,21,01,08,4.00
2011,04,21,01,09,4.00
2011,04,21,01,10,4.10
2011,04,21,01,11,4.10
2011,04,21,01,12,4.10
2011,04,21,01,13,4.20
2011,04,21,01,14,4.20
2011,04,21,01,15,4.30
2011,04,21,01,16,4.30
2011,04,21,01,17,4.40
2011,04,21,01,18,4.40
2011,04,21,01,19,4.50
2011,04,21,01,20,4.50
2011,04,21,01,21,4.60
2011,04,21,01,22,4.60
2011,04,21,01,23,4.70
2011,04,21,01,24,4.70
2011,04,21,01,25,4.70
2011,04,21,01,26,4.80
2011,04,21,01,27,4.80
2011,04,21,01,28,4.80
2011,04,21,01,29,4.80
2011,04,21,01,30,4.80
2011,04,21,01,31,4.80
2011,04,21,01,32,4.80
2011,04,21,01,33,4.90
2011,04,21,01,34,4.90
2011,04,21,01,35,4.90
2011,04,21,01,36,4.90
2011,04,21,01,37,4.90
2011,04,21,01,38,4.90
2011,04,21,01,39,4.90
2011,04,21,01,40,4.90
2011,04,21,01,41,4.90
2011,04,21,01,42,4.90
2011,04,21,01,43,4.90
2011,04,21,01,44,4.90
2011,04,21,01,45,4.90
2011,04,21,01,46,4.80
2011,04,21,01,47,4.80
2011,04,21,01,48,4.80
2011,04,21,01,49,4.80
2011,04,21,01,50,4.80
2011,04,21,01,51,4.80
2011,04,21,01,52,4.70
2011,04,21,01,53,4.70
2011,04,21,01,54,4.70
2011,04,21,01,55,4.70
2011,04,21,01,56,4.70
2011,04,21,01,57,4.70
2011,04,21,01,58,4.70
2011,04,21,01,59,4.70
2011,04,21,02,00,4.70
2011,04,21,02,01,4.70
2011,04,21,02,02,4.60
2011,04,21,02,03,4.60
2011,04,21,02,04,4.60
2011,04,21,02,05,4.60
2011,04,21,02,06,4.60
2011,04,21,02,07,4.60
2011,04,21,02,08,4.60
2011,04,21,02,09,4.60
2011,04,21,02,10,4.60
2011,04,21,02,11,4.60
2011,04,21,02,12,4.60
2011,04,21,02,13,4.60
2011,04,21,02,14,4.60
2011,04,21,02,15,4.60
2011,04,21,02,16,4.60
2011,04,21,02,17,4.60
2011,04,21,02,18,4.60
2011,04,21,02,19,4.60
2011,04,21,02,20,4.60
2011,04,21,02,21,4.60
2011,04,21,02,22,4.50
2011,04,21,02,23,4.50
2011,04,21,02,24,4.50
2011,04,21,02,25,4.50
2011,04,21,02,26,4.50
2011,04,21,02,27,4.50
2011,04,21,02,28,4.50
2011,04,21,02,29,4.50
2011,04,21,02,30,4.50
2011,04,21,02,31,4.50
2011,04,21,02,32,4.50
2011,04,21,02,33,4.50
2011,04,21,02,34,4.50
2011,04,21,02,35,4.50
2011,04,21,02,36,4.50
2011,04,21,02,37,4.50
2011,04,21,02,38,4.50
2011,04,21,02,39,4.50
2011,04,21,02,40,4.50
2011,04,21,02,41,4.50
2011,04,21,02,42,4.50
2011,04,21,02,43,4.60
2011,04,21,02,44,4.60
2011,04,21,02,45,4.60
2011,04,21,02,46,4.60
2011,04,21,02,47,4.60
2011,04,21,02,48,4.50
2011,04,21,02,49,4.50
2011,04,21,02,50,4.50
2011,04,21,02,51,4.50
2011,04,21,02,52,4.50
2011,04,21,02,53,4.40
2011,04,21,02,54,4.40
2011,04,21,02,55,4.40
2011,04,21,02,56,4.40
2011,04,21,02,57,4.40
2011,04,21,02,58,4.40
2011,04,21,02,59,4.30
2011,04,21,03,00,4.30
2011,04,21,03,01,4.30
2011,04,21,03,02,4.30
2011,04,21,03,03,4.30
2011,04,21,03,04,4.20
2011,04,21,03,05,4.20
2011,04,21,03,06,4.20
2011,04,21,03,07,4.20
2011,04,21,03,08,4.10
2011,04,21,03,09,4.10
2011,04,21,03,10,4.10
2011,04,21,03,11,4.00
2011,04,21,03,12,4.00
2011,04,21,03,13,3.90
2011,04,21,03,14,3.90
2011,04,21,03,15,3.90
2011,04,21,03,16,3.80
2011,04,21,03,17,3.80
2011,04,21,03,18,3.80
2011,04,21,03,19,3.70
2011,04,21,03,20,3.70
2011,04,21,03,21,3.70
2011,04,21,03,22,3.60
2011,04,21,03,23,3.60
2011,04,21,03,24,3.60
2011,04,21,03,25,3.60
2011,04,21,03,26,3.50
2011,04,21,03,27,3.50
2011,04,21,03,28,3.50
2011,04,21,03,29,3.40
2011,04,21,03,30,3.40
2011,04,21,03,31,3.40
2011,04,21,03,32,3.40
2011,04,21,03,33,3.40
2011,04,21,03,34,3.30
2011,04,21,03,35,3.30
2011,04,21,03,36,3.30
2011,04,21,03,37,3.30
2011,04,21,03,38,3.30
2011,04,21,03,39,3.20
2011,04,21,03,40,3.20
2011,04,21,03,41,3.20
2011,04,21,03,42,3.20
2011,04,21,03,43,3.20
2011,04,21,03,44,3.10
2011,04,21,03,45,3.10
2011,04,21,03,46,3.10
2011,04,21,03,47,3.10
2011,04,21,03,48,3.10
2011,04,21,03,49,3.00
2011,04,21,03,50,3.00
2011,04,21,03,51,2.90
2011,04,21,03,52,2.90
2011,04,21,03,53,2.90
2011,04,21,03,54,2.90
2011,04,21,03,55,2.90
2011,04,21,03,56,2.80
2011,04,21,03,57,2.80
2011,04,21,03,58,2.80
2011,04,21,03,59,2.80
2011,04,21,04,00,2.80
2011,04,21,04,01,2.80
2011,04,21,04,02,2.80
2011,04,21,04,03,2.80
2011,04,21,04,04,2.80
2011,04,21,04,05,2.80
2011,04,21,04,06,2.70
2011,04,21,04,07,2.70
2011,04,21,04,08,2.70
2011,04,21,04,09,2.70
2011,04,21,04,10,2.70
2011,04,21,04,11,2.70
2011,04,21,04,12,2.70
2011,04,21,04,13,2.70
2011,04,21,04,14,2.70
2011,04,21,04,15,2.70
2011,04,21,04,16,2.70
2011,04,21,04,17,2.70
2011,04,21,04,18,2.70
2011,04,21,04,19,2.70
2011,04,21,04,20,2.70
2011,04,21,04,21,2.70
2011,04,21,04,22,2.70
2011,04,21,04,23,2.70
2011,04,21,04,24,2.70
2011,04,21,04,25,2.70
2011,04,21,04,26,2.70
2011,04,21,04,27,2.70
2011,04,21,04,28,2.70
2011,04,21,04,29,2.70
2011,04,21,04,30,2.80
2011,04,21,04,31,2.80
2011,04,21,04,32,2.80
2011,04,21,04,33,2.80
2011,04,21,04,34,2.80
2011,04,21,04,35,2.80
2011,04,21,04,36,2.80
2011,04,21,04,37,2.80
2011,04,21,04,38,2.80
2011,04,21,04,39,2.80
2011,04,21,04,40,2.80
2011,04,21,04,41,2.70
2011,04,21,04,42,2.70
2011,04,21,04,43,2.70
2011,04,21,04,44,2.70
2011,04,21,04,45,2.70
2011,04,21,04,46,2.70
2011,04,21,04,47,2.70
2011,04,21,04,48,2.70
2011,04,21,04,49,2.70
2011,04,21,04,50,2.70
2011,04,21,04,51,2.70
2011,04,21,04,52,2.70
2011,04,21,04,53,2.70
2011,04,21,04,54,2.70
2011,04,21,04,55,2.70
2011,04,21,04,56,2.70
2011,04,21,04,57,2.70
2011,04,21,04,58,2.70
2011,04,21,04,59,2.70
2011,04,21,05,00,2.70
2011,04,21,05,01,2.70
2011,04,21,05,02,2.70
2011,04,21,05,03,2.70
2011,04,21,05,04,2.70
2011,04,21,05,05,2.70
2011,04,21,05,06,2.70
2011,04,21,05,07,2.70
2011,04,21,05,08,2.70
2011,04,21,05,09,2.70
2011,04,21,05,10,2.70
2011,04,21,05,11,2.70
2011,04,21,05,12,2.70
2011,04,21,05,13,2.60
2011,04,21,05,14,2.60
2011,04,21,05,15,2.60
2011,04,21,05,16,2.60
2011,04,21,05,17,2.60
2011,04,21,05,18,2.60
2011,04,21,05,19,2.60
2011,04,21,05,20,2.60
2011,04,21,05,21,2.60
2011,04,21,05,22,2.60
2011,04,21,05,23,2.60
2011,04,21,05,24,2.60
2011,04,21,05,25,2.60
2011,04,21,05,26,2.60
2011,04,21,05,27,2.60
2011,04,21,05,28,2.60
2011,04,21,05,29,2.60
2011,04,21,05,30,2.70
2011,04,21,05,31,2.70
2011,04,21,05,32,2.70
2011,04,21,05,33,2.70
2011,04,21,05,34,2.70
2011,04,21,05,35,2.80
2011,04,21,05,36,2.80
2011,04,21,05,37,2.80
2011,04,21,05,38,2.80
2011,04,21,05,39,2.90
2011,04,21,05,40,2.90
2011,04,21,05,41,2.90
2011,04,21,05,42,3.00
2011,04,21,05,43,3.00
2011,04,21,05,44,3.10
2011,04,21,05,45,3.10
2011,04,21,05,46,3.10
2011,04,21,05,47,3.10
2011,04,21,05,48,3.20
2011,04,21,05,49,3.20
2011,04,21,05,50,3.20
2011,04,21,05,51,3.20
2011,04,21,05,52,3.20
2011,04,21,05,53,3.20
2011,04,21,05,54,3.20
2011,04,21,05,55,3.20
2011,04,21,05,56,3.20
2011,04,21,05,57,3.20
2011,04,21,05,58,3.20
2011,04,21,05,59,3.20
2011,04,21,06,00,3.20
2011,04,21,06,01,3.20
2011,04,21,06,02,3.20
2011,04,21,06,03,3.20
2011,04,21,06,04,3.20
2011,04,21,06,05,3.10
2011,04,21,06,06,3.10
2011,04,21,06,07,3.10
2011,04,21,06,08,3.10
2011,04,21,06,09,3.10
2011,04,21,06,10,3.00
2011,04,21,06,11,3.00
2011,04,21,06,12,2.90
2011,04,21,06,13,2.90
2011,04,21,06,14,2.90
2011,04,21,06,15,2.90
2011,04,21,06,16,2.90
2011,04,21,06,17,2.80
2011,04,21,06,18,2.80
2011,04,21,06,19,2.80
2011,04,21,06,20,2.80
2011,04,21,06,21,2.80
2011,04,21,06,22,2.80
2011,04,21,06,23,2.80
2011,04,21,06,24,2.80
2011,04,21,06,25,2.80
2011,04,21,06,26,2.80
2011,04,21,06,27,2.80
2011,04,21,06,28,2.80
2011,04,21,06,29,2.80
2011,04,21,06,30,2.80
2011,04,21,06,31,2.80
2011,04,21,06,32,2.80
2011,04,21,06,33,2.80
2011,04,21,06,34,2.70
2011,04,21,06,35,2.70
2011,04,21,06,36,2.70
2011,04,21,06,37,2.70
2011,04,21,06,38,2.70
2011,04,21,06,39,2.70
2011,04,21,06,40,2.60
2011,04,21,06,41,2.60
2011,04,21,06,42,2.60
2011,04,21,06,43,2.60
2011,04,21,06,44,2.60
2011,04,21,06,45,2.60
2011,04,21,06,46,2.60
2011,04,21,06,47,2.60
2011,04,21,06,48,2.60
2011,04,21,06,49,2.60
2011,04,21,06,50,2.60
2011,04,21,06,51,2.70
2011,04,21,06,52,2.70
2011,04,21,06,53,2.70
2011,04,21,06,54,2.70
2011,04,21,06,55,2.80
2011,04,21,06,56,2.80
2011,04,21,06,57,2.80
2011,04,21,06,58,2.90
2011,04,21,06,59,2.90
2011,04,21,07,00,2.90
2011,04,21,07,01,3.00
2011,04,21,07,02,3.00
2011,04,21,07,03,3.10
2011,04,21,07,04,3.10
2011,04,21,07,05,3.10
2011,04,21,07,06,3.10
2011,04,21,07,07,3.10
2011,04,21,07,08,3.20
2011,04,21,07,09,3.20
2011,04,21,07,10,3.20
2011,04,21,07,11,3.20
2011,04,21,07,12,3.20
2011,04,21,07,13,3.20
2011,04,21,07,14,3.20
2011,04,21,07,15,3.30
2011,04,21,07,16,3.30
2011,04,21,07,17,3.30
2011,04,21,07,18,3.30
2011,04,21,07,19,3.30
2011,04,21,07,20,3.30
2011,04,21,07,21,3.40
2011,04,21,07,22,3.40
2011,04,21,07,23,3.40
2011,04,21,07,24,3.40
2011,04,21,07,25,3.40
2011,04,21,07,26,3.40
2011,04,21,07,27,3.50
2011,04,21,07,28,3.50
2011,04,21,07,29,3.60
2011,04,21,07,30,3.60
2011,04,21,07,31,3.70
2011,04,21,07,32,3.70
2011,04,21,07,33,3.70
2011,04,21,07,34,3.70
2011,04,21,07,35,3.70
2011,04,21,07,36,3.80
2011,04,21,07,37,3.80
2011,04,21,07,38,3.80
2011,04,21,07,39,3.90
2011,04,21,07,40,3.90
2011,04,21,07,41,3.90
2011,04,21,07,42,4.00
2011,04,21,07,43,4.10
2011,04,21,07,44,4.10
2011,04,21,07,45,4.20
2011,04,21,07,46,4.20
2011,04,21,07,47,4.20
2011,04,21,07,48,4.30
2011,04,21,07,49,4.30
2011,04,21,07,50,4.40
2011,04,21,07,51,4.40
2011,04,21,07,52,4.40
2011,04,21,07,53,4.40
2011,04,21,07,54,4.50
2011,04,21,07,55,4.50
2011,04,21,07,56,4.60
2011,04,21,07,57,4.60
2011,04,21,07,58,4.70
2011,04,21,07,59,4.70
2011,04,21,08,00,4.80
2011,04,21,08,01,4.80
2011,04,21,08,02,4.90
2011,04,21,08,03,4.90
2011,04,21,08,04,5.00
2011,04,21,08,05,5.00
2011,04,21,08,06,5.10
2011,04,21,08,07,5.10
2011,04,21,08,08,5.20
2011,04,21,08,09,5.20
2011,04,21,08,10,5.30
2011,04,21,08,11,5.30
2011,04,21,08,12,5.40
2011,04,21,08,13,5.40
2011,04,21,08,14,5.40
2011,04,21,08,15,5.50
2011,04,21,08,16,5.50
2011,04,21,08,17,5.60
2011,04,21,08,18,5.60
2011,04,21,08,19,5.60
2011,04,21,08,20,5.70
2011,04,21,08,21,5.70
2011,04,21,08,22,5.80
2011,04,21,08,23,5.80
2011,04,21,08,24,5.90
2011,04,21,08,25,5.90
2011,04,21,08,26,6.00
2011,04,21,08,27,6.00
2011,04,21,08,28,6.10
2011,04,21,08,29,6.20
2011,04,21,08,30,6.20
2011,04,21,08,31,6.30
2011,04,21,08,32,6.30
2011,04,21,08,33,6.30
2011,04,21,08,34,6.40
2011,04,21,08,35,6.40
2011,04,21,08,36,6.50
2011,04,21,08,37,6.50
2011,04,21,08,38,6.60
2011,04,21,08,39,6.60
2011,04,21,08,40,6.70
2011,04,21,08,41,6.70
2011,04,21,08,42,6.80
2011,04,21,08,43,6.80
2011,04,21,08,44,6.80
2011,04,21,08,45,6.80
2011,04,21,08,46,6.80
2011,04,21,08,47,6.80
2011,04,21,08,48,6.80
2011,04,21,08,49,6.90
2011,04,21,08,50,6.90
2011,04,21,08,51,6.90
2011,04,21,08,52,6.90
2011,04,21,08,53,7.00
2011,04,21,08,54,7.00
2011,04,21,08,55,7.00
2011,04,21,08,56,7.10
2011,04,21,08,57,7.10
2011,04,21,08,58,7.10
2011,04,21,08,59,7.20
2011,04,21,09,00,7.20
2011,04,21,09,01,7.20
2011,04,21,09,02,7.20
2011,04,21,09,03,7.20
2011,04,21,09,04,7.20
2011,04,21,09,05,7.30
2011,04,21,09,06,7.30
2011,04,21,09,07,7.40
2011,04,21,09,08,7.40
2011,04,21,09,09,7.40
2011,04,21,09,10,7.50
2011,04,21,09,11,7.50
2011,04,21,09,12,7.60
2011,04,21,09,13,7.60
2011,04,21,09,14,7.60
2011,04,21,09,15,7.50
2011,04,21,09,16,7.50
2011,04,21,09,17,7.50
2011,04,21,09,18,7.60
2011,04,21,09,19,7.60
2011,04,21,09,20,7.60
2011,04,21,09,21,7.60
2011,04,21,09,22,7.60
2011,04,21,09,23,7.60
2011,04,21,09,24,7.70
2011,04,21,09,25,7.70
2011,04,21,09,26,7.70
2011,04,21,09,27,7.70
2011,04,21,09,28,7.70
2011,04,21,09,29,7.80
2011,04,21,09,30,7.80
2011,04,21,09,31,7.80
2011,04,21,09,32,7.90
2011,04,21,09,33,7.90
2011,04,21,09,34,8.00
2011,04,21,09,35,8.00
2011,04,21,09,36,8.10
2011,04,21,09,37,8.10
2011,04,21,09,38,8.20
2011,04,21,09,39,8.20
2011,04,21,09,40,8.30
2011,04,21,09,41,8.40
2011,04,21,09,42,8.40
2011,04,21,09,43,8.40
2011,04,21,09,44,8.40
2011,04,21,09,45,8.40
2011,04,21,09,46,8.40
2011,04,21,09,47,8.40
2011,04,21,09,48,8.40
2011,04,21,09,49,8.50
2011,04,21,09,50,8.50
2011,04,21,09,51,8.60
2011,04,21,09,52,8.60
2011,04,21,09,53,8.70
2011,04,21,09,54,8.70
2011,04,21,09,55,8.80
2011,04,21,09,56,8.80
2011,04,21,09,57,8.80
2011,04,21,09,58,8.80
2011,04,21,09,59,8.80
2011,04,21,10,00,8.70
2011,04,21,10,01,8.80
2011,04,21,10,02,8.80
2011,04,21,10,03,8.80
2011,04,21,10,04,8.90
2011,04,21,10,05,8.90
2011,04,21,10,06,8.90
2011,04,21,10,07,9.00
2011,04,21,10,08,9.00
2011,04,21,10,09,9.10
2011,04,21,10,10,9.20
2011,04,21,10,11,9.30
2011,04,21,10,12,9.40
2011,04,21,10,13,9.50
2011,04,21,10,14,9.60
2011,04,21,10,15,9.80
2011,04,21,10,16,9.80
2011,04,21,10,17,9.80
2011,04,21,10,18,9.80
2011,04,21,10,19,9.80
2011,04,21,10,20,9.80
2011,04,21,10,21,9.70
2011,04,21,10,22,9.70
2011,04,21,10,23,9.70
2011,04,21,10,24,9.70
2011,04,21,10,25,9.70
2011,04,21,10,26,9.70
2011,04,21,10,27,9.70
2011,04,21,10,28,9.60
2011,04,21,10,29,9.50
2011,04,21,10,30,9.40
2011,04,21,10,31,9.30
2011,04,21,10,32,9.20
2011,04,21,10,33,9.10
2011,04,21,10,34,9.10
2011,04,21,10,35,9.10
2011,04,21,10,36,9.10
2011,04,21,10,37,9.10
2011,04,21,10,38,9.00
2011,04,21,10,39,9.00
2011,04,21,10,40,9.00
2011,04,21,10,41,9.00
2011,04,21,10,42,9.00
2011,04,21,10,43,9.00
2011,04,21,10,44,9.10
2011,04,21,10,45,9.10
2011,04,21,10,46,9.10
2011,04,21,10,47,9.20
2011,04,21,10,48,9.20
2011,04,21,10,49,9.30
2011,04,21,10,50,9.40
2011,04,21,10,51,9.50
2011,04,21,10,52,9.60
2011,04,21,10,53,9.60
2011,04,21,10,54,9.50
2011,04,21,10,55,9.40
2011,04,21,10,56,9.30
2011,04,21,10,57,9.30
2011,04,21,10,58,9.30
2011,04,21,10,59,9.30
2011,04,21,11,00,9.40
2011,04,21,11,01,9.50
2011,04,21,11,02,9.60
2011,04,21,11,03,9.70
2011,04,21,11,04,9.80
2011,04,21,11,05,9.80
2011,04,21,11,06,9.80
2011,04,21,11,07,9.80
2011,04,21,11,08,9.80
2011,04,21,11,09,9.60
2011,04,21,11,10,9.60
2011,04,21,11,11,9.60
2011,04,21,11,12,9.60
2011,04,21,11,13,9.60
2011,04,21,11,14,9.60
2011,04,21,11,15,9.60
2011,04,21,11,16,9.60
2011,04,21,11,17,9.50
2011,04,21,11,18,9.30
2011,04,21,11,19,9.40
2011,04,21,11,20,9.40
2011,04,21,11,21,9.50
2011,04,21,11,22,9.60
2011,04,21,11,23,9.60
2011,04,21,11,24,9.50
2011,04,21,11,25,9.50
2011,04,21,11,26,9.50
2011,04,21,11,27,9.60
2011,04,21,11,28,9.70
2011,04,21,11,29,9.70
2011,04,21,11,30,9.80
2011,04,21,11,31,9.80
2011,04,21,11,32,9.90
2011,04,21,11,33,10.00
2011,04,21,11,34,10.10
2011,04,21,11,35,10.30
2011,04,21,11,36,10.30
2011,04,21,11,37,10.30
2011,04,21,11,38,10.30
2011,04,21,11,39,10.30
2011,04,21,11,40,10.30
2011,04,21,11,41,10.20
2011,04,21,11,42,10.10
2011,04,21,11,43,10.10
2011,04,21,11,44,10.00
2011,04,21,11,45,9.90
2011,04,21,11,46,9.80
2011,04,21,11,47,9.60
2011,04,21,11,48,9.60
2011,04,21,11,49,9.50
2011,04,21,11,50,9.50
2011,04,21,11,51,9.60
2011,04,21,11,52,9.60
2011,04,21,11,53,9.70
2011,04,21,11,54,9.70
2011,04,21,11,55,9.70
2011,04,21,11,56,9.80
2011,04,21,11,57,9.80
2011,04,21,11,58,9.80
2011,04,21,11,59,9.80
2011,04,21,12,00,9.90
2011,04,21,12,01,9.90
2011,04,21,12,02,10.00
2011,04,21,12,03,10.10
2011,04,21,12,04,10.10
2011,04,21,12,05,10.20
2011,04,21,12,06,10.20
2011,04,21,12,07,10.10
2011,04,21,12,08,10.10
2011,04,21,12,09,10.00
2011,04,21,12,10,10.00
2011,04,21,12,11,9.90
2011,04,21,12,12,9.90
2011,04,21,12,13,9.90
2011,04,21,12,14,10.00
2011,04,21,12,15,10.00
2011,04,21,12,16,10.10
2011,04,21,12,17,10.20
2011,04,21,12,18,10.30
2011,04,21,12,19,10.40
2011,04,21,12,20,10.50
2011,04,21,12,21,10.50
2011,04,21,12,22,10.50
2011,04,21,12,23,10.40
2011,04,21,12,24,10.40
2011,04,21,12,25,10.40
2011,04,21,12,26,10.60
2011,04,21,12,27,10.70
2011,04,21,12,28,10.70
2011,04,21,12,29,10.70
2011,04,21,12,30,10.80
2011,04,21,12,31,10.80
2011,04,21,12,32,10.80
2011,04,21,12,33,10.80
2011,04,21,12,34,10.90
2011,04,21,12,35,11.00
2011,04,21,12,36,10.90
2011,04,21,12,37,10.90
2011,04,21,12,38,11.00
2011,04,21,12,39,11.00
2011,04,21,12,40,11.00
2011,04,21,12,41,11.00
2011,04,21,12,42,11.00
2011,04,21,12,43,11.00
2011,04,21,12,44,11.20
2011,04,21,12,45,11.20
2011,04,21,12,46,11.10
2011,04,21,12,47,10.90
2011,04,21,12,48,11.00
2011,04,21,12,49,11.20
2011,04,21,12,50,11.30
2011,04,21,12,51,11.40
2011,04,21,12,52,11.50
2011,04,21,12,53,11.60
2011,04,21,12,54,11.60
2011,04,21,12,55,11.50
2011,04,21,12,56,11.60
2011,04,21,12,57,11.60
2011,04,21,12,58,11.60
2011,04,21,12,59,11.60
2011,04,21,13,00,11.50
2011,04,21,13,01,11.50
2011,04,21,13,02,11.40
2011,04,21,13,03,11.30
2011,04,21,13,04,11.30
2011,04,21,13,05,11.30
2011,04,21,13,06,11.30
2011,04,21,13,07,11.30
2011,04,21,13,08,11.30
2011,04,21,13,09,11.30
2011,04,21,13,10,11.40
2011,04,21,13,11,11.40
2011,04,21,13,12,11.40
2011,04,21,13,13,11.40
2011,04,21,13,14,11.40
2011,04,21,13,15,11.50
2011,04,21,13,16,11.40
2011,04,21,13,17,11.30
2011,04,21,13,18,11.30
2011,04,21,13,19,11.30
2011,04,21,13,20,11.40
2011,04,21,13,21,11.40
2011,04,21,13,22,11.40
2011,04,21,13,23,11.40
2011,04,21,13,24,11.40
2011,04,21,13,25,11.30
2011,04,21,13,26,11.40
2011,04,21,13,27,11.40
2011,04,21,13,28,11.50
2011,04,21,13,29,11.60
2011,04,21,13,30,11.70
2011,04,21,13,31,11.80
2011,04,21,13,32,11.90
2011,04,21,13,33,12.00
2011,04,21,13,34,12.10
2011,04,21,13,35,12.10
2011,04,21,13,36,12.00
2011,04,21,13,37,11.90
2011,04,21,13,38,11.90
2011,04,21,13,39,11.90
2011,04,21,13,40,11.90
2011,04,21,13,41,11.90
2011,04,21,13,42,11.90
2011,04,21,13,43,11.90
2011,04,21,13,44,11.80
2011,04,21,13,45,11.70
2011,04,21,13,46,11.60
2011,04,21,13,47,11.60
2011,04,21,13,48,11.60
2011,04,21,13,49,11.60
2011,04,21,13,50,11.60
2011,04,21,13,51,11.70
2011,04,21,13,52,11.70
2011,04,21,13,53,11.80
2011,04,21,13,54,11.80
2011,04,21,13,55,11.90
2011,04,21,13,56,11.90
2011,04,21,13,57,11.90
2011,04,21,13,58,11.90
2011,04,21,13,59,12.00
2011,04,21,14,00,12.00
2011,04,21,14,01,12.00
2011,04,21,14,02,12.00
2011,04,21,14,03,11.90
2011,04,21,14,04,12.00
2011,04,21,14,05,12.10
2011,04,21,14,06,12.10
2011,04,21,14,07,12.10
2011,04,21,14,08,12.20
2011,04,21,14,09,12.40
2011,04,21,14,10,12.40
2011,04,21,14,11,12.40
2011,04,21,14,12,12.30
2011,04,21,14,13,12.20
2011,04,21,14,14,12.20
2011,04,21,14,15,12.10
2011,04,21,14,16,12.10
2011,04,21,14,17,12.00
2011,04,21,14,18,11.90
2011,04,21,14,19,11.80
2011,04,21,14,20,11.80
2011,04,21,14,21,11.80
2011,04,21,14,22,11.90
2011,04,21,14,23,12.00
2011,04,21,14,24,12.20
2011,04,21,14,25,12.30
2011,04,21,14,26,12.50
2011,04,21,14,27,12.70
2011,04,21,14,28,12.70
2011,04,21,14,29,12.80
2011,04,21,14,30,12.80
2011,04,21,14,31,12.80
2011,04,21,14,32,12.80
2011,04,21,14,33,12.80
2011,04,21,14,34,12.70
2011,04,21,14,35,12.60
2011,04,21,14,36,12.60
2011,04,21,14,37,12.50
2011,04,21,14,38,12.40
2011,04,21,14,39,12.30
2011,04,21,14,40,12.20
2011,04,21,14,41,12.10
2011,04,21,14,42,12.00
2011,04,21,14,43,12.00
2011,04,21,14,44,11.90
2011,04,21,14,45,12.00
2011,04,21,14,46,12.10
2011,04,21,14,47,12.20
2011,04,21,14,48,12.30
2011,04,21,14,49,12.30
2011,04,21,14,50,12.30
2011,04,21,14,51,12.30
2011,04,21,14,52,12.30
2011,04,21,14,53,12.30
2011,04,21,14,54,12.20
2011,04,21,14,55,12.20
2011,04,21,14,56,12.20
2011,04,21,14,57,12.20
2011,04,21,14,58,12.20
2011,04,21,14,59,12.10
2011,04,21,15,00,12.00
2011,04,21,15,01,12.00
2011,04,21,15,02,11.90
2011,04,21,15,03,11.90
2011,04,21,15,04,11.80
2011,04,21,15,05,11.80
2011,04,21,15,06,11.80
2011,04,21,15,07,11.80
2011,04,21,15,08,11.80
2011,04,21,15,09,11.80
2011,04,21,15,10,11.70
2011,04,21,15,11,11.70
2011,04,21,15,12,11.70
2011,04,21,15,13,11.60
2011,04,21,15,14,11.60
2011,04,21,15,15,11.50
2011,04,21,15,16,11.60
2011,04,21,15,17,11.60
2011,04,21,15,18,11.60
2011,04,21,15,19,11.70
2011,04,21,15,20,11.70
2011,04,21,15,21,11.70
2011,04,21,15,22,11.70
2011,04,21,15,23,11.80
2011,04,21,15,24,11.90
2011,04,21,15,25,11.90
2011,04,21,15,26,12.00
2011,04,21,15,27,12.10
2011,04,21,15,28,12.00
2011,04,21,15,29,11.90
2011,04,21,15,30,12.00
2011,04,21,15,31,12.00
2011,04,21,15,32,12.10
2011,04,21,15,33,12.10
2011,04,21,15,34,12.20
2011,04,21,15,35,12.10
2011,04,21,15,36,12.10
2011,04,21,15,37,12.10
2011,04,21,15,38,12.00
2011,04,21,15,39,12.00
2011,04,21,15,40,11.90
2011,04,21,15,41,11.90
2011,04,21,15,42,11.90
2011,04,21,15,43,12.00
2011,04,21,15,44,12.00
2011,04,21,15,45,12.00
2011,04,21,15,46,12.00
2011,04,21,15,47,12.00
2011,04,21,15,48,11.90
2011,04,21,15,49,11.80
2011,04,21,15,50,11.70
2011,04,21,15,51,11.60
2011,04,21,15,52,11.60
2011,04,21,15,53,11.70
2011,04,21,15,54,11.70
2011,04,21,15,55,11.70
2011,04,21,15,56,11.70
2011,04,21,15,57,11.70
2011,04,21,15,58,11.70
2011,04,21,15,59,11.70
2011,04,21,16,00,11.60
2011,04,21,16,01,11.50
2011,04,21,16,02,11.50
2011,04,21,16,03,11.40
2011,04,21,16,04,11.40
2011,04,21,16,05,11.40
2011,04,21,16,06,11.30
2011,04,21,16,07,11.40
2011,04,21,16,08,11.40
2011,04,21,16,09,11.40
2011,04,21,16,10,11.50
2011,04,21,16,11,11.50
2011,04,21,16,12,11.50
2011,04,21,16,13,11.40
2011,04,21,16,14,11.30
2011,04,21,16,15,11.30
2011,04,21,16,16,11.40
2011,04,21,16,17,11.40
2011,04,21,16,18,11.30
2011,04,21,16,19,11.40
2011,04,21,16,20,11.40
2011,04,21,16,21,11.50
2011,04,21,16,22,11.40
2011,04,21,16,23,11.40
2011,04,21,16,24,11.30
2011,04,21,16,25,11.30
2011,04,21,16,26,11.30
2011,04,21,16,27,11.40
2011,04,21,16,28,11.50
2011,04,21,16,29,11.50
2011,04,21,16,30,11.40
2011,04,21,16,31,11.40
2011,04,21,16,32,11.50
2011,04,21,16,33,11.50
2011,04,21,16,34,11.60
2011,04,21,16,35,11.70
2011,04,21,16,36,11.70
2011,04,21,16,37,11.60
2011,04,21,16,38,11.50
2011,04,21,16,39,11.40
2011,04,21,16,40,11.40
2011,04,21,16,41,11.40
2011,04,21,16,42,11.40
2011,04,21,16,43,11.40
2011,04,21,16,44,11.40
2011,04,21,16,45,11.40
2011,04,21,16,46,11.40
2011,04,21,16,47,11.40
2011,04,21,16,48,11.40
2011,04,21,16,49,11.50
2011,04,21,16,50,11.50
2011,04,21,16,51,11.60
2011,04,21,16,52,11.60
2011,04,21,16,53,11.60
2011,04,21,16,54,11.60
2011,04,21,16,55,11.50
2011,04,21,16,56,11.40
2011,04,21,16,57,11.40
2011,04,21,16,58,11.40
2011,04,21,16,59,11.30
2011,04,21,17,00,11.30
2011,04,21,17,01,11.30
2011,04,21,17,02,11.30
2011,04,21,17,03,11.30
2011,04,21,17,04,11.30
2011,04,21,17,05,11.30
2011,04,21,17,06,11.30
2011,04,21,17,07,11.30
2011,04,21,17,08,11.30
2011,04,21,17,09,11.30
2011,04,21,17,10,11.30
2011,04,21,17,11,11.30
2011,04,21,17,12,11.30
2011,04,21,17,13,11.30
2011,04,21,17,14,11.30
2011,04,21,17,15,11.20
2011,04,21,17,16,11.10
2011,04,21,17,17,11.10
2011,04,21,17,18,11.10
2011,04,21,17,19,11.20
2011,04,21,17,20,11.20
2011,04,21,17,21,11.20
2011,04,21,17,22,11.20
2011,04,21,17,23,11.30
2011,04,21,17,24,11.30
2011,04,21,17,25,11.40
2011,04,21,17,26,11.40
2011,04,21,17,27,11.40
2011,04,21,17,28,11.40
2011,04,21,17,29,11.30
2011,04,21,17,30,11.30
2011,04,21,17,31,11.20
2011,04,21,17,32,11.10
2011,04,21,17,33,11.00
2011,04,21,17,34,11.00
2011,04,21,17,35,10.90
2011,04,21,17,36,11.00
2011,04,21,17,37,11.00
2011,04,21,17,38,11.00
2011,04,21,17,39,10.90
2011,04,21,17,40,11.00
2011,04,21,17,41,11.00
2011,04,21,17,42,11.10
2011,04,21,17,43,11.10
2011,04,21,17,44,11.10
2011,04,21,17,45,11.00
2011,04,21,17,46,11.00
2011,04,21,17,47,11.00
2011,04,21,17,48,10.90
2011,04,21,17,49,10.90
2011,04,21,17,50,10.90